When you browse on this site, cookies collect data to enhance your experience and personalize the content and advertising you see.
Visit our Privacy Policy to learn more. By continuing to use the site, you agree to this use of cookies and data.
  • In Österreich
  • Länderverzeichnis
  • Für 7 Tage
  • Wassertemperatur
  • Wetterkarte
  • News
  • Widgets
  • user-avatar
    Anmelden

    Stündliche Wetter Lublin

    Heute, 25 Mai, Montag

    Zeit Temperatur Niederschläge Wind Luftdruck Luftfeuchtigkeit
    00:00 +8°C° 0 mm 3 m/S 750 mmHg 91%
    01:00 +8°C° 0 mm 3 m/S 749 mmHg 92%
    02:00 +8°C° 0 mm 2 m/S 749 mmHg 93%
    03:00 +8°C° 0 mm 2 m/S 749 mmHg 93%
    04:00 +8°C° 0 mm 2 m/S 750 mmHg 93%
    05:00 +8°C° 0 mm 2 m/S 750 mmHg 94%
    06:00 +9°C° 0.1 mm 2 m/S 750 mmHg 91%
    07:00 +10°C° 0.1 mm 2 m/S 750 mmHg 88%
    08:00 +11°C° 0.1 mm 3 m/S 750 mmHg 86%
    09:00 +12°C° 0.6 mm 3 m/S 750 mmHg 81%
    10:00 +13°C° 0.6 mm 3 m/S 750 mmHg 77%
    11:00 +14°C° 0.6 mm 3 m/S 750 mmHg 72%
    12:00 +14°C° 1.1 mm 3 m/S 750 mmHg 72%
    13:00 +14°C° 1.1 mm 3 m/S 750 mmHg 72%
    14:00 +15°C° 1.1 mm 4 m/S 749 mmHg 72%
    15:00 +16°C° 0.9 mm 3 m/S 749 mmHg 73%
    16:00 +16°C° 0.9 mm 3 m/S 749 mmHg 73%
    17:00 +16°C° 0.9 mm 3 m/S 749 mmHg 73%
    18:00 +14°C° 1 mm 3 m/S 749 mmHg 77%
    19:00 +13°C° 1 mm 3 m/S 750 mmHg 81%
    20:00 +13°C° 1 mm 2 m/S 750 mmHg 85%
    21:00 +12°C° 0.4 mm 2 m/S 750 mmHg 87%
    22:00 +10°C° 0.4 mm 2 m/S 750 mmHg 89%
    23:00 +10°C° 0.4 mm 2 m/S 751 mmHg 90%

    Morgen, 26 Mai, Dienstag

    Zeit Temperatur Niederschläge Wind Luftdruck Luftfeuchtigkeit
    00:00 +9°C° 0 mm 2 m/S 751 mmHg 91%
    01:00 +8°C° 0 mm 2 m/S 751 mmHg 92%
    02:00 +8°C° 0 mm 2 m/S 751 mmHg 92%
    03:00 +8°C° 0 mm 2 m/S 751 mmHg 93%
    04:00 +8°C° 0 mm 2 m/S 751 mmHg 94%
    05:00 +7°C° 0 mm 2 m/S 752 mmHg 94%
    06:00 +9°C° 0 mm 3 m/S 752 mmHg 91%
    07:00 +11°C° 0 mm 3 m/S 752 mmHg 89%
    08:00 +12°C° 0 mm 3 m/S 753 mmHg 86%
    09:00 +14°C° 0.5 mm 4 m/S 753 mmHg 81%
    10:00 +15°C° 0.5 mm 4 m/S 753 mmHg 75%
    11:00 +16°C° 0.5 mm 5 m/S 753 mmHg 70%
    12:00 +16°C° 0.7 mm 5 m/S 753 mmHg 70%
    13:00 +17°C° 0.7 mm 5 m/S 752 mmHg 70%
    14:00 +17°C° 0.7 mm 5 m/S 752 mmHg 69%
    15:00 +17°C° 0.6 mm 5 m/S 752 mmHg 71%
    16:00 +17°C° 0.6 mm 5 m/S 752 mmHg 72%
    17:00 +16°C° 0.6 mm 5 m/S 752 mmHg 73%
    18:00 +15°C° 0.4 mm 4 m/S 752 mmHg 78%
    19:00 +14°C° 0.4 mm 4 m/S 752 mmHg 83%
    20:00 +13°C° 0.4 mm 3 m/S 752 mmHg 88%
    21:00 +12°C° 0 mm 3 m/S 753 mmHg 90%
    22:00 +12°C° 0 mm 2 m/S 753 mmHg 92%
    23:00 +10°C° 0 mm 2 m/S 753 mmHg 93%

    übermorgen, 27 Mai, Mittwoch

    Zeit Temperatur Niederschläge Wind Luftdruck Luftfeuchtigkeit
    00:00 +10°C° 0 mm 2 m/S 753 mmHg 94%
    01:00 +10°C° 0 mm 2 m/S 753 mmHg 94%
    02:00 +9°C° 0 mm 2 m/S 753 mmHg 95%
    03:00 +9°C° 0 mm 2 m/S 753 mmHg 95%
    04:00 +9°C° 0 mm 3 m/S 753 mmHg 95%
    05:00 +9°C° 0 mm 3 m/S 753 mmHg 96%
    06:00 +10°C° 0 mm 3 m/S 753 mmHg 93%
    07:00 +12°C° 0 mm 3 m/S 753 mmHg 90%
    08:00 +13°C° 0 mm 3 m/S 753 mmHg 88%
    09:00 +14°C° 0.4 mm 3 m/S 753 mmHg 81%
    10:00 +17°C° 0.4 mm 4 m/S 753 mmHg 74%
    11:00 +18°C° 0.4 mm 4 m/S 752 mmHg 67%
    12:00 +19°C° 0.4 mm 4 m/S 752 mmHg 66%
    13:00 +19°C° 0.4 mm 4 m/S 752 mmHg 65%
    14:00 +19°C° 0.4 mm 5 m/S 752 mmHg 64%
    15:00 +19°C° 0.1 mm 5 m/S 751 mmHg 64%
    16:00 +19°C° 0.1 mm 5 m/S 751 mmHg 64%
    17:00 +19°C° 0.1 mm 5 m/S 751 mmHg 64%
    18:00 +17°C° 0.1 mm 4 m/S 751 mmHg 69%
    19:00 +16°C° 0.1 mm 3 m/S 751 mmHg 74%
    20:00 +14°C° 0.1 mm 2 m/S 751 mmHg 79%
    21:00 +13°C° 0 mm 2 m/S 751 mmHg 81%
    22:00 +12°C° 0 mm 2 m/S 751 mmHg 83%
    23:00 +10°C° 0 mm 2 m/S 751 mmHg 85%

    28 Mai, Donnerstag

    Zeit Temperatur Niederschläge Wind Luftdruck Luftfeuchtigkeit
    00:00 +10°C° 0 mm 2 m/S 750 mmHg 86%
    01:00 +10°C° 0 mm 2 m/S 750 mmHg 87%
    02:00 +10°C° 0 mm 2 m/S 750 mmHg 88%
    03:00 +10°C° 0 mm 2 m/S 750 mmHg 89%
    04:00 +9°C° 0 mm 2 m/S 749 mmHg 90%
    05:00 +9°C° 0 mm 2 m/S 749 mmHg 90%
    06:00 +12°C° 0.1 mm 2 m/S 749 mmHg 87%
    07:00 +12°C° 0.1 mm 3 m/S 749 mmHg 85%
    08:00 +13°C° 0.1 mm 3 m/S 749 mmHg 82%
    09:00 +14°C° 0.4 mm 3 m/S 749 mmHg 80%
    10:00 +14°C° 0.4 mm 4 m/S 749 mmHg 78%
    11:00 +15°C° 0.4 mm 4 m/S 749 mmHg 76%
    12:00 +15°C° 0.4 mm 4 m/S 748 mmHg 72%
    13:00 +16°C° 0.4 mm 5 m/S 748 mmHg 68%
    14:00 +16°C° 0.4 mm 6 m/S 747 mmHg 64%
    15:00 +16°C° 0 mm 5 m/S 747 mmHg 64%
    16:00 +16°C° 0 mm 5 m/S 747 mmHg 64%
    17:00 +16°C° 0 mm 5 m/S 747 mmHg 63%
    18:00 +14°C° 0.1 mm 4 m/S 747 mmHg 70%
    19:00 +13°C° 0.1 mm 4 m/S 747 mmHg 77%
    20:00 +12°C° 0.1 mm 3 m/S 747 mmHg 83%
    21:00 +11°C° 0.2 mm 4 m/S 746 mmHg 87%
    22:00 +10°C° 0.2 mm 4 m/S 746 mmHg 91%
    23:00 +8°C° 0.2 mm 4 m/S 746 mmHg 95%

    29 Mai, Freitag

    Zeit Temperatur Niederschläge Wind Luftdruck Luftfeuchtigkeit
    00:00 +7°C° 0 mm 4 m/S 746 mmHg 95%
    01:00 +8°C° 0 mm 3 m/S 746 mmHg 95%
    02:00 +7°C° 0 mm 3 m/S 746 mmHg 95%
    03:00 +6°C° 0 mm 4 m/S 746 mmHg 94%
    04:00 +6°C° 0 mm 4 m/S 746 mmHg 93%
    05:00 +6°C° 0 mm 4 m/S 746 mmHg 93%
    06:00 +6°C° 0 mm 4 m/S 746 mmHg 92%
    07:00 +6°C° 0 mm 4 m/S 746 mmHg 92%
    08:00 +6°C° 0 mm 4 m/S 746 mmHg 91%
    09:00 +7°C° 0 mm 4 m/S 746 mmHg 90%
    10:00 +7°C° 0 mm 4 m/S 746 mmHg 89%
    11:00 +7°C° 0 mm 4 m/S 746 mmHg 88%
    12:00 +8°C° 0 mm 4 m/S 746 mmHg 85%
    13:00 +10°C° 0 mm 4 m/S 745 mmHg 83%
    14:00 +11°C° 0 mm 4 m/S 745 mmHg 80%
    15:00 +12°C° 0.1 mm 4 m/S 745 mmHg 77%
    16:00 +13°C° 0.1 mm 4 m/S 745 mmHg 75%
    17:00 +13°C° 0.1 mm 4 m/S 744 mmHg 72%
    18:00 +12°C° 0.2 mm 3 m/S 744 mmHg 77%
    19:00 +12°C° 0.2 mm 2 m/S 744 mmHg 82%
    20:00 +10°C° 0.2 mm 2 m/S 744 mmHg 86%
    21:00 +9°C° 0 mm 2 m/S 744 mmHg 88%
    22:00 +8°C° 0 mm 2 m/S 744 mmHg 90%
    23:00 +8°C° 0 mm 2 m/S 745 mmHg 92%

    30 Mai, Samstag

    Zeit Temperatur Niederschläge Wind Luftdruck Luftfeuchtigkeit
    00:00 +7°C° 0 mm 2 m/S 744 mmHg 93%
    01:00 +7°C° 0 mm 2 m/S 744 mmHg 94%
    02:00 +7°C° 0 mm 2 m/S 744 mmHg 95%
    03:00 +7°C° 0 mm 2 m/S 744 mmHg 96%
    04:00 +5°C° 0 mm 3 m/S 744 mmHg 96%
    05:00 +5°C° 0 mm 3 m/S 744 mmHg 97%
    06:00 +8°C° 0 mm 3 m/S 744 mmHg 93%
    07:00 +9°C° 0 mm 3 m/S 745 mmHg 90%
    08:00 +11°C° 0 mm 4 m/S 745 mmHg 87%
    09:00 +12°C° 0.1 mm 4 m/S 745 mmHg 81%
    10:00 +13°C° 0.1 mm 4 m/S 745 mmHg 74%
    11:00 +15°C° 0.1 mm 5 m/S 745 mmHg 68%
    12:00 +15°C° 0.3 mm 5 m/S 745 mmHg 67%
    13:00 +16°C° 0.3 mm 5 m/S 745 mmHg 65%
    14:00 +16°C° 0.3 mm 5 m/S 745 mmHg 63%
    15:00 +16°C° 0.3 mm 5 m/S 745 mmHg 65%
    16:00 +17°C° 0.3 mm 4 m/S 745 mmHg 67%
    17:00 +17°C° 0.3 mm 4 m/S 745 mmHg 68%
    18:00 +14°C° 0.1 mm 3 m/S 744 mmHg 73%
    19:00 +13°C° 0.1 mm 3 m/S 744 mmHg 78%
    20:00 +13°C° 0.1 mm 2 m/S 744 mmHg 84%
    21:00 +12°C° 0 mm 2 m/S 744 mmHg 86%
    22:00 +10°C° 0 mm 2 m/S 745 mmHg 88%
    23:00 +9°C° 0 mm 2 m/S 745 mmHg 91%
    Mehr zeigen